Temperature
18 18 18 18 18 18 18 18 18 18 18 18 18 18 18 18 18 18 18 18 18 18 18 18 18 18 18 18 18 18 18 18 18 18 18 18 18 18 18 17 17 17 17
18 18 18 18 18 18 18 18 18 18 18 18 18 18 18 18 18 18 18 18 18 18 18 18 18 18 18 18 18 18 18 18 18 18 18 18 17 17 17 18 17 17 17
18 18 18 18 18 18 18 18 18 18 18 18 18 18 18 18 18 18 18 18 18 18 18 18 18 18 18 18 18 18 18 18 18 18 18 17 17 17 17 17 17 17 17
18 18 18 18 18 18 18 18 18 18 18 18 18 18 18 18 18 18 18 18 18 18 18 18 18 18 18 18 18 18 18 18 18 18 17 17 17 17 17 17 17 17 17
19 18 18 18 18 18 18 18 18 18 18 18 18 18 18 18 18 18 18 18 18 18 18 18 18 18 18 18 18 18 18 18 18 17 17 17 17 17 17 17 17 17 17
19 19 18 18 18 18 18 18 18 18 18 18 18 18 18 18 18 18 18 18 18 18 18 18 18 18 18 18 18 18 18 18 18 17 17 17 17 17 17 17 17 17 17
19 19 19 18 18 18 18 18 18 18 18 18 18 18 18 18 18 18 18 18 18 18 18 18 18 17 17 18 17 17 17 18 17 17 17 17 17 17 17 17 17 17 17
19 19 19 19 19 18 18 18 18 18 18 18 18 18 18 18 18 18 18 18 18 18 18 18 17 17 17 17 17 17 17 17 18 18 18 18 17 17 17 17 17 17 17
19 19 19 19 18 18 18 18 18 18 18 18 18 18 18 18 18 18 18 18 18 18 18 18 17 17 17 17 17 17 17 17 18 18 18 18 18 17 17 17 17 17 17
19 19 19 19 19 18 18 18 18 18 18 18 18 18 18 18 18 18 18 18 18 18 18 18 17 17 17 17 17 17 18 17 18 18 18 18 17 17 17 17 17 17 17
19 19 19 19 19 18 18 18 18 18 18 18 18 18 18 18 18 18 18 18 18 17 17 17 17 17 17 17 17 17 18 18 17 18 18 18 17 17 17 17 17 17 17
19 19 19 19 19 18 18 18 18 18 18 18 18 18 18 18 18 18 18 18 18 17 17 17 17 17 17 17 17 17 18 18 18 18 18 18 17 17 17 17 17 17 17
19 19 19 19 19 19 19 18 18 18 18 18 18 18 18 18 18 18 18 18 18 18 17 17 17 17 17 17 17 18 18 18 18 18 17 18 17 17 17 17 17 17 17
19 19 19 19 19 19 19 19 18 18 18 18 18 18 18 18 18 18 18 18 18 18 18 17 17 17 17 17 18 18 18 18 18 17 17 17 17 17 17 17 17 17 17
20 19 19 19 19 19 19 19 18 18 18 18 18 18 18 18 18 18 18 18 18 18 18 18 17 17 17 17 18 18 18 18 18 18 18 17 17 17 17 17 17 17 17
20 20 19 19 19 19 19 19 19 18 18 18 18 18 18 18 18 18 18 18 18 18 17 17 17 17 17 17 18 17 18 18 18 18 17 17 17 17 17 17 17 17 17
20 20 20 19 19 19 19 19 19 19 18 18 18 18 18 18 18 18 18 18 18 17 17 17 17 17 17 17 18 18 18 18 18 18 18 17 17 17 17 17 17 17 17
21 20 20 20 19 19 19 19 19 18 18 18 18 18 18 18 18 18 18 18 18 17 17 17 17 17 17 17 18 18 18 18 18 18 18 18 18 18 18 17 17 17 17
21 21 20 20 20 19 19 19 19 19 18 18 18 18 18 18 18 18 18 18 17 17 17 17 17 17 17 18 18 17 18 18 18 18 18 18 18 18 18 18 17 17 17
21 21 20 20 20 20 19 19 19 19 18 18 18 18 18 18 18 18 18 18 17 17 17 17 17 18 18 18 17 17 18 18 18 18 18 18 18 18 18 18 18 17 17
21 21 21 20 20 20 20 19 19 19 19 19 19 18 18 18 18 18 18 18 18 18 18 18 17 18 18 17 17 17 18 18 18 18 18 18 18 18 18 18 18 17 17
22 21 21 21 20 20 20 19 19 19 19 19 19 18 18 18 18 18 18 18 18 18 18 18 18 18 18 17 17 17 17 18 18 18 18 18 18 18 18 18 17 17 17
22 22 21 21 21 20 20 19 19 19 19 19 19 19 19 18 18 18 18 18 18 18 18 18 18 18 18 18 17 17 17 17 18 18 18 18 18 18 17 17 17 17 17
23 22 22 22 21 21 20 20 19 19 19 19 19 19 19 18 18 18 18 18 18 18 18 18 18 18 18 18 17 17 17 17 17 17 18 18 18 18 18 17 17 17 17
23 23 22 22 21 21 20 20 20 20 20 19 19 19 19 19 18 18 18 18 18 18 18 18 18 18 18 17 17 17 17 17 17 17 17 17 17 17 17 17 17 17 17
23 23 22 22 22 21 21 20 20 20 20 20 19 19 19 19 19 19 18 18 18 18 18 18 18 18 18 17 17 17 17 17 17 17 17 17 17 17 17 17 17 17 17
Wind_Speed
0 1 4 7 9 10 11 13 15 15 16 17 17 18 18 18 17 17 17 18 18 18 18 18 18 18 17 17 17 16 16 15 16 16 15 15 15 15 14 14 14 13 15
2 3 6 8 9 11 12 13 14 15 16 16 16 16 16 17 17 16 17 17 18 18 17 17 17 17 17 16 16 15 15 15 15 14 15 14 14 14 13 13 13 12 14
3 3 7 8 9 11 12 13 15 16 16 16 16 16 16 16 16 16 16 16 17 17 17 17 17 16 16 16 15 14 14 13 13 13 13 11 12 13 12 12 13 13 13
4 4 6 9 10 11 12 14 15 15 15 15 15 15 16 16 15 15 15 15 16 16 16 16 16 16 15 15 14 14 13 13 12 12 10 9 9 11 12 12 12 12 13
4 4 6 9 10 11 12 13 14 14 14 14 14 14 15 15 14 14 14 14 14 15 15 15 15 15 14 14 13 13 12 11 11 10 9 8 8 10 11 11 11 12 12
4 4 7 9 10 10 11 12 13 13 13 14 14 13 13 13 13 14 13 13 14 13 14 14 14 14 13 13 12 11 10 10 10 9 8 7 7 9 11 10 11 11 12
4 3 5 8 9 10 10 11 12 12 12 13 13 13 12 12 12 12 12 12 13 13 13 13 13 13 12 12 11 10 9 9 10 8 7 7 7 9 10 10 11 11 11
4 3 4 7 9 9 9 10 10 10 11 12 12 11 11 11 11 11 11 12 13 12 12 12 12 12 11 10 9 8 8 9 9 8 8 7 8 9 10 10 10 11 11
4 3 3 4 6 8 9 9 9 9 10 10 10 10 10 10 10 10 10 11 12 12 11 11 11 10 9 8 7 7 8 8 8 7 7 7 9 10 10 10 10 10 10
3 2 2 3 4 4 5 7 8 8 9 9 8 9 9 9 9 9 9 10 11 11 11 10 9 8 7 6 6 7 7 7 7 6 6 7 9 10 10 10 10 10 10
3 1 2 2 2 3 3 5 6 7 7 7 6 8 7 6 6 6 8 10 10 10 10 9 8 7 6 5 5 6 6 6 6 5 5 7 9 10 10 10 10 10 11
4 3 2 2 2 2 3 3 4 4 4 5 4 5 6 5 5 5 6 8 9 9 8 8 7 6 5 4 5 5 4 6 5 5 6 8 9 10 10 10 11 11 11
5 4 4 3 3 3 2 3 3 3 3 3 4 5 5 4 3 3 3 3 5 6 5 5 5 4 4 4 3 3 3 4 4 5 6 8 9 10 10 11 11 11 11
5 5 4 4 3 3 3 2 3 3 3 2 3 4 4 3 2 2 1 2 2 3 3 3 2 2 2 2 3 2 2 3 4 5 7 9 10 10 11 11 11 12 12
7 6 5 5 5 4 3 2 3 3 3 3 3 4 5 3 2 1 1 1 2 3 3 2 1 1 0 1 1 1 2 3 5 6 7 9 10 10 11 12 12 12 13
8 7 6 6 5 4 4 3 3 4 4 4 4 5 5 5 3 2 2 1 2 3 3 3 2 1 1 0 1 1 2 3 5 6 6 8 10 10 11 12 13 13 13
8 7 7 6 5 5 5 4 4 4 4 4 4 5 6 6 5 3 2 2 2 3 3 2 1 1 1 1 1 1 2 3 4 5 6 7 8 10 11 12 13 14 14
7 7 7 7 6 6 5 4 3 4 4 4 5 5 6 7 6 4 3 3 3 3 2 2 1 1 1 1 1 2 2 2 4 5 6 7 7 8 10 12 13 14 14
9 8 7 6 7 6 5 3 3 3 3 4 5 5 6 7 7 5 3 3 4 3 2 2 2 2 2 2 2 2 2 2 3 4 5 6 7 8 8 9 13 14 14
8 8 8 6 6 6 4 3 2 1 2 3 4 5 6 7 7 6 4 3 4 2 2 2 2 2 2 2 1 1 2 3 2 3 4 5 6 7 7 7 7 9 12
8 8 8 8 7 6 3 3 3 2 2 2 3 5 6 7 7 6 3 3 4 4 3 3 2 2 1 1 1 1 2 2 2 3 3 3 4 5 6 7 7 7 8
10 10 9 9 8 7 5 4 3 2 2 2 2 3 5 6 6 6 5 4 4 3 3 3 3 2 1 2 2 1 2 3 2 2 2 2 3 4 5 6 7 7 7
12 12 12 10 9 8 6 4 3 2 1 1 1 2 3 5 6 6 6 5 4 4 4 4 4 4 3 2 2 3 2 3 2 2 1 2 2 3 4 5 6 8 8
14 12 11 10 9 8 8 6 6 5 4 4 3 3 2 4 5 5 6 5 4 4 4 4 4 3 3 3 2 2 2 2 1 2 2 1 2 3 4 4 5 6 7
12 11 10 9 9 8 8 8 7 5 4 3 2 3 2 2 3 4 5 5 4 4 4 4 4 4 4 4 3 2 2 1 2 2 3 2 2 2 3 3 3 4 5
9 9 9 10 9 9 9 8 8 8 6 4 4 4 3 2 2 3 4 4 4 4 4 4 4 4 4 4 3 3 3 2 3 3 3 3 3 2 2 2 2 3 3
Wind_Direction
267 133 114 110 111 108 101 102 107 111 115 117 120 122 122 123 124 125 125 125 126 125 123 122 123 123 123 122 122 121 120 120 122 122 122 121 121 120 120 119 117 117 117
145 134 123 118 115 112 108 108 112 116 117 119 121 122 122 124 124 124 123 125 126 128 128 126 125 125 124 123 121 120 119 120 122 123 123 122 123 122 121 122 123 124 122
105 113 125 121 118 114 112 110 115 121 122 123 124 125 125 126 126 126 126 126 128 129 129 128 126 125 125 124 121 120 120 120 121 121 117 118 123 127 128 129 128 127 126
111 110 128 123 121 118 115 114 116 120 124 126 126 127 127 127 128 131 130 129 130 130 129 128 127 126 126 125 124 123 123 122 122 120 115 119 127 133 133 132 131 132 130
107 117 135 126 123 120 118 117 118 120 122 126 127 128 128 129 131 132 132 132 133 132 131 129 128 127 126 126 126 126 125 126 124 118 116 119 126 136 138 138 136 137 135
105 119 134 127 125 122 121 120 121 121 123 129 131 130 131 133 134 134 136 134 133 131 129 129 129 128 126 126 126 127 130 132 126 124 125 130 137 143 144 144 143 141 139
113 118 136 131 130 127 125 124 124 124 125 131 134 134 136 137 138 138 139 137 136 132 129 128 129 128 128 129 129 132 139 142 134 134 138 143 149 150 146 145 143 141 141
117 115 133 136 135 134 132 130 128 127 126 128 135 139 140 141 143 141 140 140 136 133 130 129 130 131 131 130 132 137 142 141 142 144 148 150 153 152 150 148 146 145 145
101 101 108 125 134 136 136 135 133 132 130 130 133 138 144 145 145 142 142 140 137 135 134 133 132 131 131 130 132 136 140 147 144 150 156 156 157 158 158 158 155 151 150
95 93 99 105 113 121 136 138 135 131 130 131 133 138 143 145 146 144 142 142 139 138 138 136 134 130 128 128 132 137 144 146 147 155 159 166 169 170 168 166 166 163 161
139 110 109 107 111 118 138 144 136 132 131 128 125 130 127 115 120 131 142 144 142 142 142 140 137 133 130 123 125 133 134 140 153 160 168 178 181 182 179 176 176 174 173
183 182 165 153 143 147 157 128 120 118 117 109 109 111 110 114 120 130 140 150 148 145 143 138 133 128 115 109 113 118 125 145 156 171 185 188 190 191 189 185 184 184 183
187 188 181 175 164 160 147 134 126 119 116 115 115 116 113 105 102 99 99 122 129 133 122 122 117 111 110 114 108 113 136 155 170 186 198 201 203 201 198 193 192 194 192
176 194 191 183 174 173 166 155 146 143 141 142 143 138 129 119 107 102 108 113 114 118 111 106 115 120 115 114 122 137 159 179 187 197 208 211 214 212 208 204 203 201 198
181 191 193 186 184 179 172 182 169 165 168 172 169 165 156 149 144 142 150 141 142 143 138 139 137 124 102 58 100 157 197 210 208 205 213 219 223 220 217 214 210 208 207
187 189 182 185 186 176 179 183 179 179 181 181 187 188 179 174 169 165 169 170 179 177 171 168 175 180 241 263 293 267 237 231 222 215 217 223 227 225 224 221 215 213 213
188 183 177 180 175 177 188 194 186 189 187 185 196 197 191 187 184 178 173 183 202 195 179 171 172 164 224 241 271 273 250 235 227 219 221 224 228 230 229 226 222 220 221
179 178 183 184 174 179 183 183 180 186 189 196 197 197 198 196 192 182 181 198 201 188 177 170 166 161 206 230 254 266 261 250 240 228 225 227 228 232 234 232 229 227 228
181 178 181 181 174 177 172 161 169 174 187 201 196 193 198 197 196 188 192 201 190 178 182 193 173 171 195 222 242 256 262 255 247 235 229 231 230 231 235 239 235 233 234
179 176 179 179 176 166 153 141 143 165 199 203 200 199 199 198 197 190 196 199 183 177 187 185 177 177 193 205 238 281 284 265 245 238 237 233 232 232 232 234 236 237 237
179 179 183 181 180 163 157 165 170 200 203 205 207 204 202 203 197 187 196 191 184 189 195 181 170 175 190 158 114 332 320 289 256 248 244 238 237 235 231 229 230 232 240
187 189 189 189 184 180 178 172 166 166 182 196 202 197 201 202 199 198 190 194 189 184 181 176 168 162 184 164 152 129 328 329 320 284 254 237 240 235 236 236 229 231 236
194 195 197 193 189 185 173 142 121 105 92 138 182 197 204 203 200 196 189 189 187 181 191 194 184 177 189 197 180 166 178 243 300 311 275 252 243 234 241 242 238 236 235
199 195 193 188 187 184 172 170 170 179 194 202 193 198 204 196 195 195 191 186 184 186 196 205 195 191 180 197 202 214 204 182 203 302 309 287 266 252 251 250 245 237 234
193 189 189 183 186 184 181 184 183 193 200 186 172 182 201 203 200 199 190 180 185 194 203 203 194 196 193 192 189 187 194 200 197 213 277 304 306 270 255 248 243 238 230
181 181 182 184 191 187 187 189 192 194 191 183 192 194 203 208 212 205 188 183 190 201 206 204 199 201 204 200 196 191 184 185 198 200 235 266 284 286 284 263 244 237 232
Height
1497 1496 1495 1495 1496 1496 1496 1496 1497 1498 1500 1502 1503 1505 1507 1508 1510 1512 1514 1517 1519 1521 1524 1526 1529 1531 1533 1535 1537 1540 1541 1543 1545 1546 1548 1549 1550 1552 1553 1555 1556 1557 1558
1497 1497 1497 1497 1498 1498 1499 1499 1499 1500 1502 1504 1506 1508 1509 1511 1513 1515 1517 1519 1522 1524 1526 1528 1531 1533 1535 1537 1539 1541 1543 1545 1546 1548 1549 1551 1552 1553 1555 1556 1557 1558 1559
1498 1499 1499 1499 1500 1500 1501 1501 1500 1502 1505 1507 1509 1510 1512 1514 1516 1518 1520 1522 1524 1526 1528 1531 1533 1535 1537 1539 1541 1543 1544 1546 1548 1549 1551 1552 1553 1555 1556 1557 1559 1560 1561
1500 1500 1501 1501 1502 1503 1503 1504 1504 1506 1508 1510 1511 1513 1514 1516 1518 1520 1522 1524 1526 1528 1530 1533 1535 1537 1539 1541 1543 1544 1546 1548 1549 1551 1552 1553 1555 1556 1557 1559 1560 1561 1562
1502 1502 1503 1503 1504 1505 1506 1507 1508 1509 1510 1512 1513 1515 1517 1519 1520 1522 1524 1526 1528 1530 1532 1534 1536 1538 1540 1542 1544 1546 1547 1549 1551 1552 1553 1555 1556 1557 1559 1560 1561 1562 1563
1504 1504 1505 1506 1507 1507 1509 1510 1511 1512 1512 1514 1516 1517 1519 1521 1523 1525 1526 1528 1529 1532 1534 1536 1538 1540 1542 1544 1545 1547 1549 1550 1552 1553 1554 1556 1557 1558 1560 1561 1562 1563 1564
1506 1507 1507 1508 1509 1510 1511 1512 1513 1514 1515 1516 1518 1520 1521 1523 1525 1526 1528 1530 1531 1533 1536 1538 1540 1542 1543 1545 1547 1548 1550 1552 1553 1554 1556 1557 1558 1560 1561 1562 1563 1564 1565
1508 1509 1509 1510 1511 1512 1513 1515 1516 1517 1517 1519 1520 1522 1524 1525 1527 1528 1530 1531 1533 1535 1537 1540 1541 1543 1545 1546 1548 1550 1551 1553 1554 1555 1557 1558 1559 1561 1562 1563 1564 1565 1566
1510 1511 1512 1513 1514 1515 1516 1517 1518 1519 1520 1521 1522 1524 1525 1527 1528 1530 1531 1532 1534 1536 1539 1541 1543 1545 1546 1548 1549 1551 1552 1554 1555 1557 1558 1559 1560 1561 1562 1563 1564 1566 1566
1512 1513 1514 1515 1516 1517 1518 1519 1520 1521 1522 1523 1524 1525 1527 1528 1530 1532 1533 1534 1536 1538 1540 1542 1544 1546 1548 1549 1551 1552 1554 1555 1556 1558 1559 1560 1561 1562 1563 1564 1565 1566 1567
1514 1515 1516 1517 1518 1519 1520 1521 1522 1523 1524 1525 1526 1527 1529 1530 1531 1533 1535 1536 1538 1540 1542 1544 1546 1548 1549 1551 1552 1553 1555 1556 1557 1558 1559 1561 1561 1563 1564 1564 1565 1566 1567
1515 1516 1518 1519 1520 1521 1522 1523 1524 1525 1526 1527 1528 1529 1531 1532 1533 1535 1536 1538 1539 1541 1544 1545 1547 1549 1551 1552 1554 1555 1556 1557 1558 1559 1560 1561 1562 1563 1564 1564 1565 1566 1567
1516 1518 1519 1520 1521 1523 1524 1525 1526 1527 1528 1529 1530 1531 1532 1534 1535 1536 1538 1539 1541 1543 1545 1547 1548 1550 1552 1553 1554 1555 1556 1557 1558 1559 1560 1561 1562 1562 1563 1564 1565 1566 1567
1517 1518 1520 1521 1522 1524 1525 1526 1527 1528 1530 1531 1532 1533 1534 1535 1537 1538 1540 1542 1543 1545 1546 1548 1549 1551 1553 1554 1555 1556 1557 1557 1558 1559 1560 1561 1561 1562 1563 1564 1565 1565 1566
1517 1519 1520 1522 1523 1525 1526 1527 1528 1530 1531 1532 1533 1534 1536 1537 1539 1540 1542 1543 1545 1546 1547 1549 1550 1552 1553 1554 1555 1556 1557 1557 1558 1559 1560 1560 1561 1561 1562 1563 1564 1564 1565
1517 1519 1521 1522 1524 1525 1526 1528 1529 1530 1532 1533 1534 1535 1537 1538 1540 1541 1543 1544 1546 1547 1548 1550 1551 1552 1553 1554 1555 1556 1556 1557 1558 1558 1559 1560 1560 1561 1561 1562 1563 1563 1564
1517 1519 1521 1522 1524 1526 1527 1529 1530 1531 1532 1534 1535 1536 1538 1539 1541 1542 1543 1545 1546 1548 1549 1550 1551 1552 1553 1554 1555 1555 1556 1556 1557 1557 1558 1558 1559 1560 1560 1561 1561 1562 1563
1517 1519 1521 1522 1524 1526 1528 1529 1531 1532 1533 1534 1536 1537 1538 1540 1541 1542 1544 1545 1547 1548 1549 1550 1551 1552 1553 1554 1554 1554 1555 1555 1555 1556 1556 1557 1558 1558 1559 1559 1560 1560 1561
1517 1519 1520 1522 1524 1526 1528 1529 1531 1532 1533 1534 1536 1537 1539 1540 1541 1543 1544 1545 1546 1547 1548 1550 1551 1552 1552 1553 1553 1553 1553 1554 1554 1554 1555 1555 1556 1556 1557 1557 1558 1558 1559
1515 1518 1520 1522 1523 1525 1527 1529 1530 1532 1533 1534 1536 1537 1539 1540 1541 1543 1544 1545 1546 1547 1548 1549 1550 1551 1551 1552 1552 1552 1552 1552 1552 1552 1553 1554 1554 1554 1555 1555 1556 1556 1557
1514 1516 1518 1520 1522 1524 1526 1527 1529 1530 1532 1534 1535 1537 1538 1540 1541 1542 1543 1544 1545 1546 1547 1548 1549 1549 1550 1551 1551 1551 1551 1551 1551 1551 1551 1551 1552 1552 1553 1553 1553 1554 1554
1512 1514 1516 1519 1521 1522 1524 1526 1528 1530 1531 1533 1534 1536 1537 1539 1540 1541 1542 1543 1544 1545 1546 1547 1548 1548 1549 1549 1550 1550 1549 1550 1549 1549 1549 1549 1550 1550 1550 1551 1551 1551 1552
1509 1511 1514 1516 1519 1521 1523 1525 1527 1528 1530 1531 1532 1534 1536 1537 1538 1539 1541 1542 1543 1544 1545 1545 1546 1547 1547 1548 1548 1549 1549 1548 1547 1547 1547 1547 1548 1548 1548 1549 1549 1549 1549
1505 1509 1512 1514 1517 1519 1521 1523 1525 1526 1527 1529 1531 1533 1534 1536 1537 1538 1539 1540 1541 1542 1543 1544 1545 1545 1546 1546 1546 1547 1547 1547 1547 1546 1546 1545 1546 1546 1546 1546 1546 1546 1546
1502 1506 1509 1512 1514 1517 1519 1521 1523 1524 1526 1528 1529 1531 1533 1534 1535 1536 1537 1538 1539 1540 1541 1542 1543 1543 1543 1544 1544 1544 1545 1545 1545 1545 1543 1543 1543 1543 1543 1543 1543 1543 1543
1499 1503 1506 1509 1512 1515 1517 1519 1521 1522 1524 1526 1527 1529 1531 1532 1533 1535 1536 1537 1537 1538 1539 1540 1541 1541 1541 1542 1542 1542 1543 1543 1542 1543 1542 1541 1541 1541 1541 1541 1540 1540 1540